Wetterdaten: Woche 08.10.12 - 14.10.12 (KW41)
Datum Zeit Temperatur Luftfeuchte Luftdruck Niederschlag Windrichtung Sonnenschein Solar Wind
08.10.2012 00:00 4,4 C 92 % 1022,0 hPa 0,0 l/m N 0,00 h 0 W/m 0,1 km/h (0 Bft)
08.10.2012 01:00 3,7 C 92 % 1022,1 hPa 0,0 l/m N 0,00 h 0 W/m 0,0 km/h (0 Bft)
08.10.2012 02:00 3,2 C 93 % 1022,1 hPa 0,0 l/m N 0,00 h 0 W/m 0,0 km/h (0 Bft)
08.10.2012 03:00 2,6 C 93 % 1022,1 hPa 0,0 l/m N 0,00 h 0 W/m 0,0 km/h (0 Bft)
08.10.2012 04:00 2,2 C 94 % 1021,9 hPa 0,0 l/m N 0,00 h 0 W/m 0,7 km/h (0 Bft)
08.10.2012 05:00 2,2 C 94 % 1021,6 hPa 0,0 l/m N 0,00 h 0 W/m 0,5 km/h (0 Bft)
08.10.2012 06:00 1,8 C 94 % 1021,1 hPa 0,0 l/m N 0,00 h 0 W/m 0,4 km/h (0 Bft)
08.10.2012 07:00 1,4 C 94 % 1020,9 hPa 0,0 l/m N 0,00 h 9 W/m 2,4 km/h (1 Bft)
08.10.2012 08:00 1,7 C 96 % 1021,0 hPa 0,2 l/m N 0,00 h 39 W/m 2,7 km/h (1 Bft)
08.10.2012 09:00 3,6 C 98 % 1021,0 hPa 0,0 l/m N 0,00 h 122 W/m 2,7 km/h (1 Bft)
08.10.2012 10:00 5,2 C 98 % 1020,8 hPa 0,0 l/m N 0,00 h 128 W/m 3,7 km/h (1 Bft)
08.10.2012 11:00 7,2 C 95 % 1020,3 hPa 0,0 l/m N 0,00 h 138 W/m 3,7 km/h (1 Bft)
08.10.2012 12:00 8,9 C 92 % 1019,9 hPa 0,0 l/m N 0,00 h 189 W/m 2,9 km/h (1 Bft)
08.10.2012 13:00 10,3 C 88 % 1019,3 hPa 0,0 l/m O-NO 0,00 h 188 W/m 4,0 km/h (1 Bft)
08.10.2012 14:00 10,7 C 88 % 1018,7 hPa 0,0 l/m N 0,00 h 99 W/m 3,5 km/h (1 Bft)
08.10.2012 15:00 11,1 C 88 % 1018,2 hPa 0,0 l/m O 0,00 h 130 W/m 3,9 km/h (1 Bft)
08.10.2012 16:00 11,5 C 88 % 1017,4 hPa 0,0 l/m SO 0,00 h 76 W/m 4,3 km/h (1 Bft)
08.10.2012 17:00 11,4 C 90 % 1016,8 hPa 0,0 l/m SW 0,00 h 35 W/m 7,6 km/h (2 Bft)
08.10.2012 18:00 11,2 C 90 % 1016,2 hPa 0,0 l/m SW 0,00 h 10 W/m 2,9 km/h (1 Bft)
08.10.2012 19:00 10,7 C 91 % 1016,0 hPa 0,0 l/m SW 0,00 h 0 W/m 3,2 km/h (1 Bft)
08.10.2012 20:00 10,5 C 92 % 1015,4 hPa 0,0 l/m SW 0,00 h 0 W/m 3,2 km/h (1 Bft)
08.10.2012 21:00 10,3 C 93 % 1014,8 hPa 0,0 l/m S-SW 0,00 h 0 W/m 5,5 km/h (1 Bft)
08.10.2012 22:00 10,2 C 95 % 1014,5 hPa 0,0 l/m SW 0,00 h 0 W/m 7,5 km/h (2 Bft)
08.10.2012 23:00 10,2 C 95 % 1013,8 hPa 0,6 l/m SW 0,00 h 0 W/m 7,2 km/h (2 Bft)
09.10.2012 00:00 10,6 C 96 % 1012,7 hPa 1,2 l/m SW 0,00 h 0 W/m 10,2 km/h (2 Bft)
09.10.2012 01:00 10,7 C 97 % 1011,6 hPa 0,2 l/m SW 0,00 h 0 W/m 15,0 km/h (3 Bft)
09.10.2012 02:00 10,8 C 97 % 1010,8 hPa 0,4 l/m SW 0,00 h 0 W/m 10,6 km/h (2 Bft)
09.10.2012 03:00 11,0 C 98 % 1009,9 hPa 0,4 l/m SW 0,00 h 0 W/m 7,9 km/h (2 Bft)
09.10.2012 04:00 11,2 C 98 % 1009,0 hPa 2,8 l/m SW 0,00 h 0 W/m 8,3 km/h (2 Bft)
09.10.2012 05:00 11,4 C 98 % 1008,7 hPa 2,2 l/m SW 0,00 h 0 W/m 6,7 km/h (2 Bft)
09.10.2012 06:00 12,1 C 99 % 1008,7 hPa 9,0 l/m W-SW 0,00 h 0 W/m 10,3 km/h (2 Bft)
09.10.2012 07:00 12,5 C 99 % 1009,0 hPa 1,2 l/m W-SW 0,00 h 6 W/m 14,4 km/h (3 Bft)
09.10.2012 08:00 12,7 C 99 % 1009,6 hPa 0,8 l/m W-SW 0,00 h 14 W/m 11,3 km/h (2 Bft)
09.10.2012 09:00 12,9 C 99 % 1010,0 hPa 0,2 l/m SW 0,00 h 42 W/m 13,4 km/h (3 Bft)
09.10.2012 10:00 13,4 C 99 % 1010,2 hPa 0,0 l/m W-SW 0,00 h 100 W/m 15,3 km/h (3 Bft)
09.10.2012 11:00 13,9 C 98 % 1010,5 hPa 0,2 l/m W-SW 0,00 h 107 W/m 12,6 km/h (3 Bft)
09.10.2012 12:00 14,3 C 97 % 1010,4 hPa 0,4 l/m W-SW 0,00 h 135 W/m 17,8 km/h (3 Bft)
09.10.2012 13:00 14,7 C 97 % 1010,4 hPa 1,2 l/m W-SW 0,00 h 113 W/m 16,6 km/h (3 Bft)
09.10.2012 14:00 15,0 C 97 % 1010,1 hPa 0,4 l/m W-SW 0,00 h 131 W/m 14,6 km/h (3 Bft)
09.10.2012 15:00 14,9 C 97 % 1010,2 hPa 0,8 l/m W 0,00 h 63 W/m 12,3 km/h (3 Bft)
09.10.2012 16:00 14,8 C 97 % 1010,4 hPa 0,0 l/m W 0,00 h 68 W/m 10,8 km/h (2 Bft)
09.10.2012 17:00 14,6 C 96 % 1010,7 hPa 1,2 l/m N-NW 0,00 h 13 W/m 10,6 km/h (2 Bft)
09.10.2012 18:00 13,2 C 94 % 1011,4 hPa 0,2 l/m N 0,00 h 6 W/m 10,6 km/h (2 Bft)
09.10.2012 19:00 12,0 C 95 % 1012,2 hPa 0,0 l/m N 0,00 h 0 W/m 10,2 km/h (2 Bft)
09.10.2012 20:00 11,4 C 96 % 1012,7 hPa 0,2 l/m N 0,00 h 0 W/m 7,8 km/h (2 Bft)
09.10.2012 21:00 10,9 C 96 % 1013,2 hPa 0,0 l/m N 0,00 h 0 W/m 7,6 km/h (2 Bft)
09.10.2012 22:00 10,4 C 96 % 1013,4 hPa 0,0 l/m NO 0,00 h 0 W/m 6,7 km/h (2 Bft)
09.10.2012 23:00 10,1 C 96 % 1013,4 hPa 0,0 l/m O-NO 0,00 h 0 W/m 6,7 km/h (2 Bft)
10.10.2012 00:00 9,7 C 96 % 1013,4 hPa 0,0 l/m O-NO 0,00 h 0 W/m 1,5 km/h (1 Bft)
10.10.2012 01:00 9,7 C 97 % 1013,1 hPa 0,0 l/m N 0,00 h 0 W/m 1,5 km/h (1 Bft)
10.10.2012 02:00 9,6 C 97 % 1012,8 hPa 0,0 l/m N 0,00 h 0 W/m 1,5 km/h (1 Bft)
10.10.2012 03:00 9,4 C 96 % 1012,4 hPa 0,0 l/m N 0,00 h 0 W/m 1,6 km/h (1 Bft)
10.10.2012 04:00 9,2 C 96 % 1012,2 hPa 0,0 l/m N 0,00 h 0 W/m 0,0 km/h (0 Bft)
10.10.2012 05:00 9,0 C 96 % 1011,8 hPa 0,0 l/m N 0,00 h 0 W/m 0,8 km/h (0 Bft)
10.10.2012 06:00 8,9 C 96 % 1011,5 hPa 0,0 l/m O-NO 0,00 h 0 W/m 1,2 km/h (1 Bft)
10.10.2012 07:00 8,9 C 96 % 1011,4 hPa 0,4 l/m N 0,00 h 8 W/m 1,7 km/h (1 Bft)
10.10.2012 08:00 8,9 C 96 % 1011,3 hPa 0,4 l/m N 0,00 h 15 W/m 1,3 km/h (1 Bft)
10.10.2012 09:00 9,1 C 97 % 1011,2 hPa 0,4 l/m O-NO 0,00 h 36 W/m 3,5 km/h (1 Bft)
10.10.2012 10:00 9,5 C 97 % 1011,1 hPa 0,2 l/m O-NO 0,00 h 38 W/m 2,1 km/h (1 Bft)
10.10.2012 11:00 9,8 C 98 % 1011,2 hPa 0,2 l/m O-NO 0,00 h 53 W/m 4,7 km/h (1 Bft)
10.10.2012 12:00 9,8 C 98 % 1011,4 hPa 0,4 l/m O-NO 0,00 h 55 W/m 2,9 km/h (1 Bft)
10.10.2012 13:00 10,0 C 98 % 1011,4 hPa 0,0 l/m N-NO 0,00 h 56 W/m 3,9 km/h (1 Bft)
10.10.2012 14:00 9,9 C 98 % 1011,3 hPa 1,6 l/m N-NO 0,00 h 58 W/m 2,8 km/h (1 Bft)
10.10.2012 15:00 10,2 C 98 % 1011,4 hPa 0,8 l/m N-NO 0,00 h 70 W/m 3,3 km/h (1 Bft)
10.10.2012 16:00 10,4 C 98 % 1011,5 hPa 0,8 l/m N-NO 0,00 h 61 W/m 4,0 km/h (1 Bft)
10.10.2012 17:00 10,5 C 98 % 1011,6 hPa 0,0 l/m N-NO 0,00 h 25 W/m 2,1 km/h (1 Bft)
10.10.2012 18:00 10,6 C 98 % 1012,1 hPa 0,0 l/m N-NO 0,00 h 9 W/m 4,1 km/h (1 Bft)
10.10.2012 19:00 10,3 C 98 % 1012,6 hPa 0,2 l/m N-NO 0,00 h 0 W/m 4,5 km/h (1 Bft)
10.10.2012 20:00 9,9 C 98 % 1012,8 hPa 0,0 l/m O-NO 0,00 h 0 W/m 7,0 km/h (2 Bft)
10.10.2012 21:00 9,6 C 98 % 1012,9 hPa 0,0 l/m NO 0,00 h 0 W/m 4,9 km/h (1 Bft)
10.10.2012 22:00 9,4 C 97 % 1013,2 hPa 0,2 l/m NO 0,00 h 0 W/m 2,8 km/h (1 Bft)
10.10.2012 23:00 9,2 C 98 % 1013,2 hPa 0,0 l/m N 0,00 h 0 W/m 0,4 km/h (0 Bft)
11.10.2012 00:00 9,2 C 98 % 1013,2 hPa 0,0 l/m N 0,00 h 0 W/m 1,5 km/h (1 Bft)
11.10.2012 01:00 9,1 C 98 % 1013,0 hPa 0,0 l/m NO 0,00 h 0 W/m 3,7 km/h (1 Bft)
11.10.2012 02:00 9,0 C 98 % 1012,8 hPa 0,0 l/m NO 0,00 h 0 W/m 4,7 km/h (1 Bft)
11.10.2012 03:00 8,8 C 98 % 1012,2 hPa 0,0 l/m NO 0,00 h 0 W/m 2,8 km/h (1 Bft)
11.10.2012 04:00 8,7 C 98 % 1012,0 hPa 0,0 l/m NO 0,00 h 0 W/m 3,9 km/h (1 Bft)
11.10.2012 05:00 8,7 C 98 % 1012,0 hPa 0,0 l/m NO 0,00 h 0 W/m 4,7 km/h (1 Bft)
11.10.2012 06:00 8,7 C 98 % 1011,6 hPa 0,0 l/m NO 0,00 h 0 W/m 4,5 km/h (1 Bft)
11.10.2012 07:00 8,6 C 98 % 1011,5 hPa 0,0 l/m N 0,00 h 6 W/m 2,3 km/h (1 Bft)
11.10.2012 08:00 8,6 C 98 % 1011,3 hPa 0,0 l/m NO 0,00 h 19 W/m 4,4 km/h (1 Bft)
11.10.2012 09:00 8,9 C 98 % 1011,1 hPa 0,0 l/m NO 0,00 h 36 W/m 4,4 km/h (1 Bft)
11.10.2012 10:00 9,2 C 98 % 1010,9 hPa 0,0 l/m NO 0,00 h 56 W/m 6,5 km/h (2 Bft)
11.10.2012 11:00 9,9 C 97 % 1010,6 hPa 0,0 l/m NO 0,00 h 115 W/m 6,9 km/h (2 Bft)
11.10.2012 12:00 10,9 C 96 % 1010,3 hPa 0,0 l/m NO 0,00 h 114 W/m 6,7 km/h (2 Bft)
11.10.2012 13:00 11,6 C 94 % 1009,5 hPa 0,0 l/m NO 0,00 h 118 W/m 8,6 km/h (2 Bft)
11.10.2012 14:00 12,1 C 92 % 1009,0 hPa 0,0 l/m O-NO 0,00 h 130 W/m 7,6 km/h (2 Bft)
11.10.2012 15:00 12,5 C 91 % 1008,7 hPa 0,0 l/m NO 0,00 h 143 W/m 8,7 km/h (2 Bft)
11.10.2012 16:00 12,6 C 91 % 1008,4 hPa 0,0 l/m N-NO 0,00 h 101 W/m 7,9 km/h (2 Bft)
11.10.2012 17:00 12,6 C 92 % 1008,2 hPa 0,0 l/m N-NO 0,00 h 46 W/m 6,9 km/h (2 Bft)
11.10.2012 18:00 12,4 C 93 % 1008,2 hPa 0,0 l/m N-NO 0,00 h 12 W/m 5,6 km/h (1 Bft)
11.10.2012 19:00 12,1 C 93 % 1008,2 hPa 0,0 l/m N 0,00 h 0 W/m 2,8 km/h (1 Bft)
11.10.2012 20:00 11,8 C 94 % 1008,2 hPa 0,0 l/m N 0,00 h 0 W/m 2,1 km/h (1 Bft)
11.10.2012 21:00 11,6 C 95 % 1008,4 hPa 0,0 l/m N-NO 0,00 h 0 W/m 3,2 km/h (1 Bft)
11.10.2012 22:00 11,3 C 95 % 1008,4 hPa 0,0 l/m N 0,00 h 0 W/m 2,7 km/h (1 Bft)
11.10.2012 23:00 11,0 C 95 % 1008,3 hPa 0,0 l/m N 0,00 h 0 W/m 1,3 km/h (1 Bft)
12.10.2012 00:00 10,8 C 96 % 1008,0 hPa 0,0 l/m N 0,00 h 0 W/m 0,9 km/h (0 Bft)
12.10.2012 01:00 10,8 C 96 % 1007,7 hPa 0,0 l/m N 0,00 h 0 W/m 0,4 km/h (0 Bft)
12.10.2012 02:00 10,7 C 97 % 1007,4 hPa 0,0 l/m N 0,00 h 0 W/m 0,7 km/h (0 Bft)
12.10.2012 03:00 10,7 C 97 % 1007,1 hPa 0,0 l/m N 0,00 h 0 W/m 0,9 km/h (0 Bft)
12.10.2012 04:00 10,8 C 97 % 1006,9 hPa 0,0 l/m N 0,00 h 0 W/m 0,1 km/h (0 Bft)
12.10.2012 05:00 10,9 C 98 % 1006,8 hPa 0,0 l/m N 0,00 h 0 W/m 1,2 km/h (1 Bft)
12.10.2012 06:00 11,0 C 98 % 1006,7 hPa 0,0 l/m N-NO 0,00 h 0 W/m 3,3 km/h (1 Bft)
12.10.2012 07:00 11,1 C 98 % 1006,7 hPa 0,0 l/m S-SW 0,00 h 10 W/m 6,6 km/h (2 Bft)
12.10.2012 08:00 11,2 C 98 % 1006,8 hPa 0,0 l/m SW 0,00 h 20 W/m 12,2 km/h (2 Bft)
12.10.2012 09:00 11,6 C 98 % 1007,1 hPa 0,0 l/m SW 0,00 h 58 W/m 13,8 km/h (3 Bft)
12.10.2012 10:00 12,4 C 98 % 1007,4 hPa 0,4 l/m SW 0,00 h 100 W/m 13,2 km/h (3 Bft)
12.10.2012 11:00 12,9 C 98 % 1007,8 hPa 0,2 l/m SW 0,00 h 114 W/m 13,4 km/h (3 Bft)
12.10.2012 12:00 13,7 C 96 % 1008,1 hPa 0,0 l/m W-SW 0,00 h 147 W/m 17,0 km/h (3 Bft)
12.10.2012 13:00 14,2 C 93 % 1008,1 hPa 0,0 l/m W-SW 0,00 h 125 W/m 17,4 km/h (3 Bft)
12.10.2012 14:00 14,4 C 93 % 1008,2 hPa 0,0 l/m W-SW 0,00 h 122 W/m 17,7 km/h (3 Bft)
12.10.2012 15:00 14,1 C 91 % 1008,8 hPa 0,0 l/m W 0,00 h 83 W/m 21,8 km/h (4 Bft)
12.10.2012 16:00 13,4 C 90 % 1009,6 hPa 0,0 l/m W 0,00 h 65 W/m 27,5 km/h (4 Bft)
12.10.2012 17:00 12,7 C 88 % 1010,8 hPa 1,0 l/m W 0,00 h 26 W/m 23,3 km/h (4 Bft)
12.10.2012 18:00 11,9 C 93 % 1012,2 hPa 1,4 l/m W-NW 0,08 h 15 W/m 9,0 km/h (2 Bft)
12.10.2012 19:00 11,0 C 94 % 1013,1 hPa 0,0 l/m W-NW 0,00 h 0 W/m 8,7 km/h (2 Bft)
12.10.2012 20:00 9,8 C 93 % 1013,7 hPa 0,2 l/m W 0,00 h 0 W/m 10,7 km/h (2 Bft)
12.10.2012 21:00 9,0 C 93 % 1014,4 hPa 0,0 l/m W 0,00 h 0 W/m 3,5 km/h (1 Bft)
12.10.2012 22:00 8,0 C 93 % 1015,1 hPa 0,0 l/m N 0,00 h 0 W/m 0,9 km/h (0 Bft)
12.10.2012 23:00 7,1 C 94 % 1015,6 hPa 0,0 l/m W 0,00 h 0 W/m 4,9 km/h (1 Bft)
13.10.2012 00:00 7,0 C 96 % 1015,9 hPa 0,0 l/m W 0,00 h 0 W/m 8,7 km/h (2 Bft)
13.10.2012 01:00 6,9 C 96 % 1016,0 hPa 0,0 l/m W 0,00 h 0 W/m 5,1 km/h (1 Bft)
13.10.2012 02:00 6,4 C 96 % 1016,1 hPa 0,0 l/m N 0,00 h 0 W/m 0,1 km/h (0 Bft)
13.10.2012 03:00 5,5 C 96 % 1015,8 hPa 0,0 l/m N 0,00 h 0 W/m 0,1 km/h (0 Bft)
13.10.2012 04:00 4,8 C 95 % 1015,5 hPa 0,0 l/m N 0,00 h 0 W/m 0,0 km/h (0 Bft)
13.10.2012 05:00 4,6 C 96 % 1015,4 hPa 0,0 l/m N 0,00 h 0 W/m 0,9 km/h (0 Bft)
13.10.2012 06:00 4,9 C 97 % 1015,2 hPa 0,0 l/m N 0,00 h 0 W/m 0,5 km/h (0 Bft)
13.10.2012 07:00 4,7 C 97 % 1014,8 hPa 0,0 l/m W 0,08 h 10 W/m 3,6 km/h (1 Bft)
13.10.2012 08:00 4,0 C 97 % 1014,7 hPa 0,0 l/m N 0,00 h 57 W/m 2,0 km/h (1 Bft)
13.10.2012 09:00 5,1 C 98 % 1014,5 hPa 0,0 l/m W 0,00 h 114 W/m 0,7 km/h (0 Bft)
13.10.2012 10:00 7,0 C 97 % 1013,9 hPa 0,0 l/m N 0,83 h 354 W/m 2,7 km/h (1 Bft)
13.10.2012 11:00 9,6 C 86 % 1013,1 hPa 0,0 l/m SO 0,92 h 397 W/m 5,1 km/h (1 Bft)
13.10.2012 12:00 11,2 C 73 % 1012,3 hPa 0,0 l/m O 0,92 h 419 W/m 8,3 km/h (2 Bft)
13.10.2012 13:00 12,1 C 70 % 1011,0 hPa 0,0 l/m O-NO 0,92 h 377 W/m 8,8 km/h (2 Bft)
13.10.2012 14:00 12,6 C 69 % 1010,4 hPa 0,0 l/m NO 0,50 h 281 W/m 7,8 km/h (2 Bft)
13.10.2012 15:00 12,5 C 70 % 1010,0 hPa 0,0 l/m NO 0,00 h 186 W/m 7,6 km/h (2 Bft)
13.10.2012 16:00 12,4 C 72 % 1009,3 hPa 0,0 l/m O 0,08 h 134 W/m 4,4 km/h (1 Bft)
13.10.2012 17:00 12,1 C 77 % 1008,6 hPa 0,0 l/m N-NO 0,42 h 97 W/m 3,2 km/h (1 Bft)
13.10.2012 18:00 11,6 C 81 % 1008,6 hPa 0,0 l/m N 0,00 h 12 W/m 4,1 km/h (1 Bft)
13.10.2012 19:00 10,0 C 84 % 1008,8 hPa 0,0 l/m N-NW 0,00 h 0 W/m 3,7 km/h (1 Bft)
13.10.2012 20:00 8,4 C 90 % 1008,9 hPa 0,0 l/m W 0,00 h 0 W/m 8,4 km/h (2 Bft)
13.10.2012 21:00 7,9 C 91 % 1008,6 hPa 0,0 l/m W-SW 0,00 h 0 W/m 7,4 km/h (2 Bft)
13.10.2012 22:00 7,5 C 92 % 1008,4 hPa 0,0 l/m W-SW 0,00 h 0 W/m 7,1 km/h (2 Bft)
13.10.2012 23:00 7,3 C 93 % 1008,6 hPa 0,0 l/m W-SW 0,00 h 0 W/m 9,4 km/h (2 Bft)
14.10.2012 00:00 6,9 C 94 % 1008,6 hPa 0,0 l/m SW 0,00 h 0 W/m 9,0 km/h (2 Bft)
14.10.2012 01:00 6,8 C 96 % 1008,3 hPa 0,0 l/m SW 0,00 h 0 W/m 10,8 km/h (2 Bft)
14.10.2012 02:00 7,1 C 95 % 1008,0 hPa 0,2 l/m W-SW 0,00 h 0 W/m 9,3 km/h (2 Bft)
14.10.2012 03:00 6,7 C 95 % 1007,4 hPa 0,0 l/m SW 0,00 h 0 W/m 9,1 km/h (2 Bft)
14.10.2012 04:00 6,5 C 96 % 1007,0 hPa 0,0 l/m SW 0,00 h 0 W/m 9,7 km/h (2 Bft)
14.10.2012 05:00 6,6 C 95 % 1006,5 hPa 0,0 l/m SW 0,00 h 0 W/m 6,5 km/h (2 Bft)
14.10.2012 06:00 6,5 C 95 % 1006,7 hPa 0,0 l/m SW 0,00 h 0 W/m 5,5 km/h (1 Bft)
14.10.2012 07:00 6,7 C 95 % 1006,5 hPa 0,0 l/m SW 0,00 h 0 W/m 6,0 km/h (2 Bft)
14.10.2012 08:00 6,9 C 94 % 1006,2 hPa 0,0 l/m SW 0,00 h 31 W/m 7,2 km/h (2 Bft)
14.10.2012 09:00 8,7 C 89 % 1005,2 hPa 0,0 l/m S-SW 0,83 h 239 W/m 7,8 km/h (2 Bft)
14.10.2012 10:00 10,4 C 83 % 1004,5 hPa 0,0 l/m S-SW 0,92 h 358 W/m 8,6 km/h (2 Bft)
14.10.2012 11:00 11,3 C 77 % 1003,4 hPa 0,0 l/m S 0,33 h 250 W/m 9,7 km/h (2 Bft)
14.10.2012 12:00 11,6 C 75 % 1002,6 hPa 0,0 l/m SW 0,42 h 271 W/m 8,2 km/h (2 Bft)
14.10.2012 13:00 12,4 C 71 % 1001,7 hPa 0,0 l/m S-SW 0,33 h 267 W/m 8,6 km/h (2 Bft)
14.10.2012 14:00 13,2 C 70 % 1000,3 hPa 0,0 l/m S-SW 0,75 h 366 W/m 7,1 km/h (2 Bft)
14.10.2012 15:00 14,0 C 66 % 999,6 hPa 0,0 l/m SO 0,25 h 209 W/m 9,3 km/h (2 Bft)
14.10.2012 16:00 13,5 C 71 % 998,8 hPa 0,0 l/m S-SO 0,00 h 93 W/m 4,4 km/h (1 Bft)
14.10.2012 17:00 13,1 C 77 % 998,2 hPa 0,0 l/m SW 0,00 h 43 W/m 2,8 km/h (1 Bft)
14.10.2012 18:00 12,5 C 81 % 998,3 hPa 0,0 l/m W-SW 0,00 h 13 W/m 2,5 km/h (1 Bft)
14.10.2012 19:00 11,1 C 85 % 998,4 hPa 0,0 l/m W 0,00 h 0 W/m 6,0 km/h (2 Bft)
14.10.2012 20:00 10,2 C 87 % 998,5 hPa 0,0 l/m NW 0,00 h 0 W/m 4,4 km/h (1 Bft)
14.10.2012 21:00 9,7 C 83 % 998,9 hPa 0,0 l/m W-NW 0,00 h 0 W/m 5,5 km/h (1 Bft)
14.10.2012 22:00 9,4 C 85 % 999,0 hPa 0,0 l/m N 0,00 h 0 W/m 1,1 km/h (0 Bft)
14.10.2012 23:00 8,4 C 87 % 998,5 hPa 0,0 l/m N 0,00 h 0 W/m 1,2 km/h (1 Bft)
Min-Datum _ 08.10.12 14.10.12 14.10.12 - - - - 08.10.12
_ Min-Zeit 07:20 15:40 17:25 - - - - 00:00
Minimum _ 1,3 C 63 % 997,9 hPa - - - - 0,0 km/h (0 Bft)
Max-Datum _ 09.10.12 10.10.12 08.10.12 09.10.12 - 12.10.12 14.10.12 12.10.12
_ Max-Zeit 14:10 09:00 01:10 06:05 - 18:25 13:05 16:35
Maximum _ 15,0 C 100 % 1022,3 hPa 9,0 l/m - 0,08 h 594 W/m 33,8 km/h
W (5 Bft)
Durchschnitt _ 9,8 C 93 % 1011,0 hPa #32,8 l/m SW #8:35 h 106 W/m 6,1 km/h (2 Bft)